星链-11512 (STARLINK-11512)

导读 | 豆包AI

STARLINK-11512是美国SpaceX星链计划中的卫星,于2025年1月8日发射升空。作为星链星座的组成部分,它旨在为全球提供低延迟、高速率的卫星互联网服务,覆盖偏远地区,补充地面网络覆盖不足。该卫星依托SpaceX可回收火箭技术发射,是星链大规模组网进程中重要一环,助力构建全球卫星互联网基础设施。

基本信息
目录编号:
62517
目录名称:
STARLINK-11512
国际标识:
2025-004G
轨道中心:
EARTH
卫星名称:
星链-11512
卫星全名:
星链-11512 (STARLINK-11512)
卫星状态:
在轨 (已飞行431 天)
发射日期:
2025-01-08 UTC
国别 :
美国 (US)
星等 :
--
轨道信息
数据来源 国际轨道数据
星历时间: 2026-03-14T06:53:30+0800
1天前
查看轨道信息
半长轴: 6734.436km
偏心率: 0.0001365
轨道倾角: 42.999°
近地点辐角 285.540°
升交点赤经 44.625°
平近点角 74.532°
近地点: 355.379km
远地点: 357.219km
周期: 91.667分钟
每日圈数: 15.709086
详细信息
固有亮度:
5
最大亮度:
2.5
卫星平台:
Starlink V1.0
覆盖范围:
全球
运营商:
太空探索技术公司
运营商所在国:
美国
制造商(研发单位):
太空探索技术公司
制造商所在国:
美国
使用方式:
暂无
卫星简介
Starlink 计划是 SpaceX 推出的全球卫星互联网项目,通过发射低轨道卫星,为全球尤其是偏远地区提供高速、低延迟的互联网服务。自 2019 年起,Starlink 已部署数千颗卫星,旨在缩小全球数字鸿沟,推动互联网普及。该项目还为军事、航空等行业提供通信支持,带来广泛经济效益。
2D轨道图
3D轨道图
轨道高度分析图
轨道倾角分析图
轨道综合分析图
查看轨道综合分析图